Overview Statistics Trail Chart Weather Telemetry Raw packets
 

This is the latest recevied weather packets stored in our database for station/object GBTWP-2. If no packets are shown the sender has not sent any weather packets the latest 10 day(s).

<< 76 77 78 79 80 81 82 >>
Time Temp. Humidity Pressure Rain* Wind** Luminosity Snow
1788130620 22.78° C 81% 1018.9 hPa 0 mm - 64 W/m² -
1788130320 22.78° C 81% 1019.2 hPa 0 mm - 73 W/m² -
1788130020 22.78° C 81% 1019.3 hPa 0 mm - 94 W/m² -
1788129720 22.78° C 82% 1019.4 hPa 0 mm - 77 W/m² -
1788129421 22.78° C 82% 1019.5 hPa 0 mm - 63 W/m² -
1788129120 22.78° C 82% 1019.4 hPa 0 mm - 65 W/m² -
1788128820 22.78° C 81% 1019.4 hPa 0 mm - 80 W/m² -
1788128520 22.78° C 82% 1019.5 hPa 0 mm - 108 W/m² -
1788128220 22.22° C 83% 1019.5 hPa 0 mm - 98 W/m² -
1788127920 22.22° C 83% 1019.5 hPa 0 mm - 82 W/m² -
1788127620 22.22° C 83% 1019.8 hPa 0 mm - 55 W/m² -
1788127320 22.22° C 85% 1019.5 hPa 0 mm - 53 W/m² -
1788127020 22.22° C 84% 1019.5 hPa 0 mm - 49 W/m² -
1788126720 22.22° C 84% 1019.6 hPa 0 mm - 46 W/m² -
1788126420 22.22° C 85% 1019.6 hPa 0 mm - 46 W/m² -
1788126120 22.22° C 84% 1019.7 hPa 0 mm - 55 W/m² -
1788125821 22.22° C 84% 1019.7 hPa 0 mm - 54 W/m² -
1788125520 22.22° C 84% 1019.6 hPa 0 mm - 58 W/m² -
1788125220 22.22° C 85% 1019.7 hPa 0 mm - 74 W/m² -
1788124920 22.22° C 84% 1019.7 hPa 0 mm - 52 W/m² -
1788124620 22.22° C 84% 1019.7 hPa 0 mm - 54 W/m² -
1788124320 22.22° C 85% 1019.8 hPa 0 mm - 49 W/m² -
1788124021 22.22° C 84% 1019.6 hPa 0 mm - 59 W/m² -
1788123720 22.22° C 84% 1019.8 hPa 0 mm - 69 W/m² -
1788123425 22.22° C 84% 1019.6 hPa 0 mm - 62 W/m² -

* Rain latest hour (hover to see other rain measurements)
** Current wind speed in m/s (hover to see current wind gust speed)